RH
31 27 27 27 24 22 23 24 33 34 29 31 75 98 100 96 80 80 80 80 93 96 92 89 94 94 75 74 80 85 88 75 74 68 68 65 65 66 77 75 75 75 80 84
47 33 31 34 28 25 22 19 20 23 24 24 53 64 77 78 80 83 86 92 97 92 72 69 70 75 53 60 59 56 58 57 54 52 50 58 60 61 64 68 80 84 85 92
64 38 44 69 55 35 29 26 30 36 38 37 52 59 66 72 75 86 91 95 90 63 56 50 49 47 50 47 49 47 46 43 39 40 42 47 42 43 49 59 64 72 82 81
71 58 86 51 25 26 43 37 47 35 40 39 43 52 65 77 78 83 90 74 56 52 50 50 49 48 50 43 46 46 44 40 37 39 40 40 41 44 50 50 52 51 58 60
86 74 49 35 26 28 54 60 61 30 30 30 37 58 66 63 64 76 58 52 46 46 49 53 49 46 43 45 45 43 41 40 40 40 40 42 46 50 49 50 52 53 50 55
70 74 59 39 41 54 37 63 35 34 35 50 52 65 65 61 55 49 46 44 44 45 48 62 66 54 80 80 73 76 55 47 39 43 44 47 53 53 52 51 50 52 53 58
76 76 46 25 25 37 68 68 44 42 40 52 62 58 74 57 47 44 43 42 44 47 55 70 80 78 92 93 94 92 86 63 65 50 54 56 61 57 56 56 59 62 62 64
67 68 76 29 31 74 65 47 47 47 51 68 61 57 53 48 48 46 44 44 43 48 57 64 69 89 94 95 94 92 91 91 90 89 67 63 72 76 64 65 70 78 78 81
50 66 68 67 64 49 43 44 48 48 50 55 55 54 52 54 50 48 48 53 44 48 55 56 59 76 92 94 91 93 93 93 92 91 92 91 91 92 87 84 87 87 87 93
73 42 36 38 43 47 38 44 41 42 50 50 54 51 52 51 48 48 60 70 47 53 60 61 57 56 67 60 61 76 88 91 92 92 91 91 92 92 91 92 92 92 92 93
63 50 42 41 41 40 41 40 38 39 47 47 49 50 49 48 46 48 54 50 61 70 71 68 56 52 46 45 47 53 62 63 67 78 88 92 92 92 95 93 87 95 95 96
84 64 59 51 45 38 45 43 40 43 45 42 43 46 45 46 46 52 50 50 55 62 60 55 45 44 40 39 39 46 53 57 70 70 79 83 88 94 63 73 63 61 60 85
56 65 63 56 47 38 43 42 39 42 40 43 40 41 41 44 47 54 46 50 53 64 60 67 71 68 50 48 55 65 67 65 72 75 78 83 86 89 94 85 69 67 65 64
50 52 58 50 56 44 42 39 45 38 39 41 40 40 43 42 47 44 44 44 42 49 66 77 81 92 92 87 89 92 90 82 91 93 93 93 93 93 94 94 94 96 82 80
44 42 46 46 45 44 41 40 44 45 44 45 43 45 43 44 45 42 38 37 39 49 57 56 60 82 78 76 75 79 81 84 88 92 91 88 87 87 88 88 90 90 91 93
42 44 42 48 48 47 46 46 48 51 51 48 48 48 46 45 43 39 37 38 46 55 58 67 70 83 85 83 81 81 84 84 83 84 85 83 82 83 80 81 81 86 88 92
52 57 52 53 55 54 50 49 45 48 50 50 53 52 46 50 50 45 43 49 77 80 80 82 87 88 89 90 86 80 80 77 80 71 73 76 80 82 79 83 85 85 87 91
44 47 46 45 52 56 55 54 54 54 60 59 66 73 78 72 59 64 73 80 86 90 86 87 90 92 91 90 85 78 78 77 80 80 76 82 83 76 82 80 79 83 88 90
48 48 56 46 51 55 57 60 61 63 76 84 82 87 88 89 84 86 84 89 90 91 89 91 88 93 91 90 79 77 77 81 77 76 79 79 89 82 84 88 88 88 86 89
64 72 82 82 93 75 87 92 92 91 92 88 90 89 91 93 89 89 87 87 84 83 86 86 86 87 81 78 84 69 75 79 77 81 90 88 90 92 91 86 88 90 92 93
99 100 100 100 100 100 99 92 89 92 94 90 88 90 90 92 91 90 93 89 87 89 89 82 80 75 65 64 74 80 79 84 89 90 90 91 91 90 94 94 91 92 93 93
98 100 99 97 98 98 98 100 93 93 93 93 94 93 94 94 94 94 91 86 83 87 82 80 76 71 59 73 60 81 80 80 86 90 92 91 91 92 92 92 93 92 92 92
97 98 98 97 96 97 99 98 96 93 94 94 93 92 89 84 84 88 88 77 76 84 78 76 75 78 77 86 82 85 84 86 88 91 91 92 93 93 93 92 92 92 92 92
94 96 94 94 96 88 93 95 93 94 96 95 94 93 88 90 93 76 77 82 79 87 85 83 84 80 80 88 90 88 87 87 88 90 90 83 94 93 92 92 91 89 91 90
97 97 96 98 93 88 93 91 90 90 91 83 84 84 84 80 97 95 93 86 82 83 88 83 83 83 87 90 90 89 89 90 92 92 92 91 91 92 90 90 93 90 90 89
96 94 93 94 86 81 80 80 83 84 82 91 88 98 94 92 89 89 92 90 86 83 87 91 89 90 92 91 89 88 89 89 89 90 90 91 90 90 92 90 89 88 93 96
85 84 85 81 73 73 76 77 91 97 89 99 99 100 96 94 92 90 87 93 92 94 91 91 94 92 93 90 87 88 91 90 90 96 93 88 90 93 93 95 96 94 93 94
Wind_Speed
20 22 21 23 24 23 22 21 20 19 20 16 11 14 10 14 15 15 15 15 12 10 8 7 5 3 5 1 7 6 5 3 2 4 2 1 2 3 4 4 5 5 5 7
25 20 21 25 25 25 24 24 23 22 24 13 12 8 11 15 15 14 12 12 11 10 11 10 9 7 6 6 3 2 4 2 4 3 3 3 2 3 5 5 6 2 5 5
24 16 18 17 10 18 22 21 19 17 15 11 2 9 14 15 15 15 15 12 13 13 11 8 7 6 6 5 4 4 3 5 4 4 5 5 6 6 6 6 6 6 5 5
16 14 18 9 16 18 19 17 13 15 14 12 13 12 15 15 16 15 16 16 14 11 10 8 8 6 5 5 5 5 5 5 4 5 5 6 6 6 6 5 6 6 6 8
10 11 18 23 20 16 8 14 18 15 13 10 4 11 13 17 17 17 16 13 11 10 10 8 8 7 7 6 6 6 5 6 6 5 6 6 5 5 5 5 5 5 6 8
9 11 15 12 4 11 17 10 8 10 11 10 10 8 7 12 15 15 15 13 12 12 10 8 5 6 9 7 8 6 4 4 6 5 6 6 5 5 5 5 6 5 6 7
12 12 12 14 20 5 7 3 7 8 9 6 6 2 10 12 15 15 14 14 14 12 10 8 7 9 7 6 4 3 6 6 7 6 6 7 6 6 6 5 5 6 6 6
13 14 16 14 12 6 2 4 5 5 6 12 11 14 16 15 15 15 15 15 15 12 11 9 10 8 6 6 4 3 3 3 3 4 6 6 7 6 6 6 5 5 5 5
7 5 10 14 3 7 4 2 2 2 9 13 13 14 14 14 14 13 14 12 11 11 11 10 11 9 7 6 5 3 3 3 3 3 3 3 3 4 4 6 4 4 5 3
10 7 10 3 4 5 2 2 3 7 13 13 12 14 14 13 13 12 10 6 9 12 11 10 10 10 9 11 10 8 5 5 3 3 3 3 3 3 4 5 5 4 5 6
6 11 12 4 9 4 7 2 5 9 12 12 14 15 15 14 13 13 11 9 9 8 8 8 10 9 11 11 11 8 6 5 6 5 2 4 3 2 2 2 2 2 2 3
9 8 7 8 1 3 6 7 8 11 13 14 15 15 14 13 12 13 13 12 11 10 10 10 10 10 10 9 8 8 5 4 3 1 3 3 2 4 2 4 6 4 2 1
11 4 9 3 4 5 7 8 10 11 12 14 13 12 14 12 13 13 13 13 12 12 11 8 6 6 6 6 3 2 2 4 4 1 1 2 1 2 1 6 8 8 6 4
2 4 4 5 1 3 5 8 10 11 10 11 11 11 11 11 13 13 12 12 13 12 10 8 7 6 5 7 6 5 4 4 0 2 1 1 2 2 1 2 2 2 11 10
6 6 4 4 2 5 6 8 10 9 9 9 9 9 10 11 11 11 11 11 11 12 11 11 10 8 7 7 7 6 5 4 4 2 2 1 1 3 3 2 3 2 1 5
6 4 3 2 4 5 8 9 9 9 8 8 9 8 10 9 9 9 10 10 12 11 11 9 8 9 7 6 6 5 4 2 1 2 3 4 4 4 3 3 2 2 2 2
4 4 5 4 5 7 9 8 9 10 9 9 8 8 10 10 8 8 8 7 5 6 7 7 6 8 7 5 6 5 5 6 7 4 5 3 3 2 2 2 2 2 1 3
4 3 5 4 6 7 7 6 6 9 7 8 7 6 6 7 8 7 6 8 6 5 5 7 7 7 7 6 6 5 4 3 7 6 5 4 2 2 1 2 2 2 1 4
5 4 6 3 4 6 6 6 6 7 7 7 8 6 6 6 7 8 9 8 6 6 5 6 10 9 8 7 8 5 4 3 3 2 3 3 3 3 4 3 1 1 1 1
8 9 9 5 7 3 6 6 8 8 6 8 9 8 7 6 7 8 7 8 7 4 6 9 9 8 8 9 8 5 5 6 5 4 2 2 2 1 1 2 2 2 2 1
5 5 5 5 6 7 7 6 9 8 6 6 8 7 7 7 6 7 6 5 7 6 7 10 9 7 7 7 9 7 6 4 4 3 3 3 4 5 3 3 2 2 2 2
3 3 3 3 5 6 5 6 7 7 6 5 5 6 6 7 5 5 3 4 2 11 7 7 7 9 7 10 7 7 7 6 4 3 2 3 3 3 2 1 1 2 2 2
4 3 3 4 4 5 4 4 4 5 5 5 5 7 7 5 6 5 5 8 4 9 7 6 7 9 7 5 5 5 5 4 4 2 2 2 1 1 1 1 1 1 2 2
4 5 4 4 3 4 4 3 3 4 3 3 3 4 5 3 3 5 3 5 8 10 6 5 7 9 8 5 4 4 5 5 4 3 2 2 1 1 1 1 2 3 3 3
3 3 3 1 2 3 5 4 2 4 3 4 5 4 4 3 2 1 3 5 6 6 5 5 6 7 6 5 5 6 5 4 3 2 3 3 2 3 3 3 4 4 4 4
5 3 4 3 3 3 4 3 2 3 3 3 3 3 4 1 0 2 1 2 5 5 4 5 5 5 5 5 6 6 4 3 3 4 3 2 3 2 2 3 3 4 2 6
2 3 2 3 4 4 5 5 3 4 3 3 3 2 3 3 3 2 3 3 3 4 4 4 5 6 5 6 6 5 4 4 3 3 4 5 3 4 4 1 4 6 6 7
Wind_Direction
272 281 284 278 276 275 275 282 280 291 284 283 248 208 214 159 160 163 169 168 167 177 177 171 165 196 168 231 162 207 180 160 301 125 169 107 17 83 132 101 73 34 12 49
270 269 273 275 272 265 260 259 263 272 274 289 56 140 158 158 158 169 167 157 169 177 188 168 165 190 160 145 104 132 82 45 66 38 44 59 52 56 68 69 110 81 17 80
266 282 287 277 276 281 283 282 284 283 306 325 33 190 185 171 179 175 167 168 183 179 178 159 142 145 143 124 130 99 87 73 52 52 52 43 48 41 52 51 51 61 51 23
279 280 270 279 269 279 256 265 262 275 283 287 274 206 183 171 178 174 171 176 175 164 157 148 140 132 129 130 119 106 86 82 59 63 56 53 53 48 46 53 52 48 44 38
253 258 279 284 279 288 201 274 241 285 312 317 102 85 129 156 164 171 169 159 155 143 145 143 141 148 138 130 116 98 91 85 69 53 61 53 47 52 44 50 42 44 46 40
255 261 262 269 5 3 322 270 22 353 335 126 149 178 162 152 165 148 143 144 139 143 142 111 127 102 70 54 63 46 54 50 83 48 52 52 34 18 47 48 44 27 38 42
235 248 271 282 295 152 257 350 7 354 326 140 169 69 134 142 124 134 134 140 134 140 135 119 87 105 98 96 103 71 354 51 27 29 49 26 26 20 8 42 42 36 18 33
230 250 265 251 257 254 58 96 15 346 57 82 91 105 120 128 129 135 134 136 151 148 142 140 126 116 121 127 130 114 119 72 65 20 29 33 29 6 20 16 37 17 26 19
204 223 14 327 77 285 3 43 52 48 105 121 126 129 131 137 130 136 147 160 151 139 145 145 146 148 140 144 136 143 114 109 121 95 37 16 35 10 25 11 13 14 4 30
282 268 266 180 186 271 224 287 156 149 134 146 147 148 143 144 153 148 144 146 145 141 149 150 152 159 154 162 158 159 159 154 144 103 103 33 25 21 60 26 3 12 8 351
274 285 298 326 273 212 156 202 188 151 147 157 151 157 158 159 154 144 156 156 132 140 142 149 158 163 162 164 170 169 166 173 160 142 146 145 112 46 62 101 96 353 3 334
275 271 237 272 82 118 173 187 186 154 161 157 162 158 161 157 155 156 168 154 159 154 161 167 171 170 170 172 181 162 168 188 101 102 147 145 170 156 179 153 178 172 141 106
296 35 300 26 288 264 182 190 177 170 165 158 160 160 163 155 155 162 167 165 171 168 168 177 172 149 165 166 169 87 161 98 118 283 127 46 351 336 318 201 224 227 228 230
92 174 233 252 259 154 199 185 156 169 151 156 156 158 156 156 144 167 169 171 168 163 151 133 120 109 97 82 89 85 87 72 70 127 180 220 227 255 249 273 285 216 225 227
318 287 308 311 209 197 174 154 166 147 152 158 151 160 152 152 163 170 160 170 158 159 169 177 172 163 158 160 163 170 178 179 194 212 199 205 357 281 250 248 252 259 195 195
324 332 284 252 219 175 165 162 169 156 157 153 154 150 149 144 165 166 162 165 165 176 177 181 176 163 167 174 174 173 210 249 222 229 227 196 222 234 246 256 270 291 298 77
284 267 248 206 194 179 180 182 173 171 163 163 159 154 158 152 166 157 159 145 115 148 152 149 151 147 159 171 188 206 195 191 197 211 238 250 226 234 263 257 256 263 269 114
248 14 319 226 188 184 182 175 166 152 161 158 144 133 134 153 164 147 130 111 102 87 131 142 138 147 162 178 200 219 235 219 174 203 221 236 214 256 15 288 273 283 319 156
21 3 337 333 184 173 183 170 147 144 127 124 123 122 117 113 121 122 124 124 136 156 191 148 160 162 180 190 194 227 251 254 238 237 204 203 161 220 236 247 271 296 296 294
25 14 7 25 21 71 99 76 96 93 97 110 108 112 115 115 126 132 146 172 185 192 168 177 172 183 194 193 206 234 218 230 234 232 228 217 225 231 264 258 253 269 281 276
23 10 18 41 54 54 83 107 115 116 111 120 137 146 148 143 145 150 165 199 198 179 165 174 180 196 203 196 183 211 228 239 217 224 231 227 212 234 232 242 245 237 255 250
17 62 69 48 69 82 77 90 99 112 119 121 115 127 138 154 157 183 228 223 168 164 173 180 191 206 204 188 198 189 203 227 235 224 226 236 236 229 227 234 231 246 254 255
47 66 77 74 93 96 93 97 94 119 136 146 159 164 178 176 176 189 211 214 219 172 179 196 192 192 203 188 200 189 198 206 218 206 225 243 232 218 204 227 249 282 282 269
60 59 73 65 84 120 127 127 135 126 132 144 159 165 176 194 192 196 135 117 170 172 195 191 186 176 177 191 203 203 206 213 209 201 215 212 222 184 212 226 242 253 252 257
65 89 97 144 178 128 96 129 142 135 157 207 165 172 215 257 201 159 153 145 146 166 187 207 192 175 180 193 203 214 217 197 184 189 195 208 203 212 223 236 241 251 259 255
24 39 69 44 15 22 83 152 241 157 169 172 188 155 147 231 339 114 110 159 164 178 232 184 187 175 176 206 225 219 187 171 179 174 188 234 224 219 238 247 249 260 337 58
93 10 55 94 63 49 25 27 25 48 54 36 5 137 149 164 204 200 222 198 209 179 206 231 172 165 185 209 216 207 173 178 190 183 194 208 216 233 241 297 60 63 58 60